Weather History for KJAX - December, 2012

Change the Weather History Date:

Sunday, December 2, 2012

  Actual Average Record
Temperature  
Mean Temperature 64 °F 58 °F  
Max Temperature 77 °F 69 °F 84 °F (1991)
Min Temperature 50 °F 47 °F 25 °F (1876)
Degree Days  
Heating Degree Days 1 8  
Month to date heating degree days 2 16  
Since 1 July heating degree days 250 189  
Cooling Degree Days 0 1  
Month to date cooling degree days 0 2  
Year to date cooling degree days 2743 2646  
Growing Degree Days 14 (Base 50)    
Moisture  
Dew Point 56 °F    
Average Humidity 77    
Maximum Humidity 100    
Minimum Humidity 54    
Precipitation  
Precipitation 0.00 in 0.09 in 1.12 in (1901)
Month to date precipitation 0.01 0.17  
Year to date precipitation 51.11 49.76  
Snow  
Snow 0.00 in 0.00 in 0.00 in (2001)
Month to date snowfall 0.0 0.0  
Since 1 July snowfall 0.0 0.0  
Snow Depth 0.00 in    
Sea Level Pressure  
Sea Level Pressure 30.29 in    
Wind  
Wind Speed 3 mph (ENE)    
Max Wind Speed 13 mph    
Max Gust Speed 17 mph    
Visibility 5 miles    
Events Fog    
T = Trace of Precipitation, MM = Missing Value Source: NWS Daily Summary

Daily Weather History Graph

Daily Weather History Graph

Search for Another Location

Airport or City:

Trip Planner

Search our weather history database for the weather conditions in past years. The results will help you decide how hot, cold, wet, or windy it might be!

Date:

Astronomy

Dec. 02, 2012 Rise Set
Actual Time 7:07 AM EST 5:25 PM EST
Civil Twilight 6:41 AM EST 5:51 PM EST
Nautical Twilight 6:11 AM EST 6:21 PM EST
Astronomical Twilight 5:42 AM EST 6:50 PM EST
Moon 9:04 PM EST (12/2) 10:01 AM EST (12/2)
Length of Visible Light 11h 10m
Length of Day
10h 18m
Waning Gibbous, 86% of the Moon is Illuminated
Dec 2
Waning Gibbous
Dec 6
Last Quarter
Dec 13
New
Dec 20
First Quarter
Dec 28
Full

Hourly Weather History & Observations

Time (EST) Temp. Dew Point Humidity Pressure Visibility Wind Dir Wind Speed Gust Speed Precip Events Conditions
12:56 AM 55.0 °F 54.0 °F 96% 30.29 in 7.0 mi Calm Calm - N/A Fog Shallow Fog
1:51 AM 53.6 °F 53.6 °F 100% 30.28 in 1.5 mi Calm Calm - N/A   Partly Cloudy
1:56 AM 54.0 °F 53.1 °F 97% 30.28 in 1.5 mi Calm Calm - N/A   Partly Cloudy
2:25 AM 53.6 °F 51.8 °F 94% 30.28 in 0.8 mi Calm Calm - N/A   Scattered Clouds
2:31 AM 53.6 °F 53.6 °F 100% 30.28 in 0.2 mi Calm Calm - N/A Fog Fog
2:56 AM 53.1 °F 53.1 °F 100% 30.27 in 0.2 mi Calm Calm - N/A Fog Fog
3:11 AM 53.6 °F 53.6 °F 100% 30.27 in 0.2 mi Calm Calm - N/A Fog Fog
3:42 AM 53.6 °F 53.6 °F 100% 30.28 in 1.5 mi Calm Calm - N/A   Mostly Cloudy
3:56 AM 53.1 °F 52.0 °F 96% 30.28 in 1.5 mi Calm Calm - N/A   Mostly Cloudy
4:39 AM 53.6 °F 51.8 °F 94% 30.29 in 0.8 mi Calm Calm - N/A   Scattered Clouds
4:56 AM 53.1 °F 53.1 °F 100% 30.29 in 0.5 mi Calm Calm - N/A Fog Fog
5:13 AM 51.8 °F 51.8 °F 100% 30.29 in 0.2 mi Calm Calm - N/A Fog Fog
5:31 AM 51.8 °F 51.8 °F 100% 30.29 in 0.8 mi Calm Calm - N/A   Scattered Clouds
5:56 AM 52.0 °F 51.1 °F 97% 30.30 in 0.8 mi Calm Calm - N/A   Scattered Clouds
6:56 AM 50.0 °F 48.9 °F 96% 30.30 in 0.8 mi Calm Calm - N/A   Scattered Clouds
7:08 AM 51.8 °F 50.0 °F 94% 30.30 in 0.5 mi Calm Calm - N/A Fog Fog
7:39 AM 51.8 °F 50.0 °F 94% 30.31 in 1.2 mi Calm Calm - N/A   Scattered Clouds
7:56 AM 55.9 °F 55.0 °F 97% 30.31 in 1.8 mi Calm Calm - N/A   Scattered Clouds
8:08 AM 55.4 °F 55.4 °F 100% 30.31 in 4.0 mi Calm Calm - N/A   Scattered Clouds
8:56 AM 62.1 °F 60.1 °F 93% 30.33 in 10.0 mi Calm Calm - N/A   Scattered Clouds
9:56 AM 69.1 °F 62.1 °F 78% 30.34 in 10.0 mi NE 5.8 mph - N/A   Scattered Clouds
10:56 AM 75.2 °F 60.8 °F 61% 30.32 in 10.0 mi ENE 8.1 mph - N/A   Scattered Clouds
11:56 AM 75.0 °F 60.1 °F 60% 30.31 in 10.0 mi NNE 6.9 mph - N/A   Scattered Clouds
1:56 PM 75.9 °F 57.9 °F 54% 30.26 in 10.0 mi East 9.2 mph - N/A   Scattered Clouds
2:56 PM 75.0 °F 59.0 °F 57% 30.26 in 10.0 mi ENE 8.1 mph - N/A   Scattered Clouds
3:56 PM 73.0 °F 60.1 °F 64% 30.26 in 10.0 mi ENE 11.5 mph - N/A   Scattered Clouds
4:56 PM 70.0 °F 60.1 °F 71% 30.26 in 10.0 mi East 5.8 mph - N/A   Scattered Clouds
5:56 PM 66.9 °F 61.0 °F 81% 30.26 in 10.0 mi ENE 10.4 mph - N/A   Mostly Cloudy
6:56 PM 64.4 °F 60.8 °F 88% 30.26 in 10.0 mi ENE 3.5 mph - N/A   Scattered Clouds
7:56 PM 62.1 °F 60.1 °F 93% 30.28 in 10.0 mi ENE 3.5 mph - N/A   Scattered Clouds
8:56 PM 60.1 °F 57.9 °F 93% 30.27 in 7.0 mi Calm Calm - N/A   Partly Cloudy
9:56 PM 59.0 °F 57.9 °F 96% 30.27 in 8.0 mi Calm Calm - N/A   Scattered Clouds
10:56 PM 57.9 °F 57.0 °F 97% 30.27 in 6.0 mi Calm Calm - N/A   Scattered Clouds
11:17 PM 57.2 °F 55.4 °F 94% 30.27 in 2.0 mi Calm Calm - N/A   Mostly Cloudy
11:56 PM 55.0 °F 55.0 °F 100% 30.27 in 0.5 mi Calm Calm - N/A Fog Fog